Decatur, AL

1:23 AM CST on December 15, 2017 (GMT -0600)
Pryor Regional

Weather History for KDCU - January, 2014

Change the Weather History Date:

Sunday, January 26, 2014

  Actual Average Record
Temperature  
Mean Temperature 38 °F -  
Max Temperature 57 °F 51 °F 77 °F (1950)
Min Temperature 19 °F 28 °F 7 °F (1985)
Degree Days  
Heating Degree Days 27    
Moisture  
Dew Point 26 °F    
Average Humidity 57    
Maximum Humidity 92    
Minimum Humidity 33    
Precipitation  
Precipitation 0.00 in - - ()
Sea Level Pressure  
Sea Level Pressure 29.91 in    
Wind  
Wind Speed 5 mph (South)    
Max Wind Speed 16 mph    
Max Gust Speed 21 mph    
Visibility 10 miles    
Events      
Averages and records for this station are not official NWS values.
T = Trace of Precipitation, MM = Missing Value Source: NWS Daily Summary

Daily Weather History Graph

Daily Weather History Graph

Search for Another Location

Airport or City:

Trip Planner

Search our weather history database for the weather conditions in past years. The results will help you decide how hot, cold, wet, or windy it might be!

Date:

Astronomy

Jan. 26, 2014 Rise Set
Actual Time 6:49 AM CST 5:11 PM CST
Civil Twilight 6:23 AM CST 5:38 PM CST
Nautical Twilight 5:52 AM CST 6:08 PM CST
Astronomical Twilight 5:22 AM CST 6:38 PM CST
Moon 2:26 AM CST (1/26) 1:01 PM CST (1/26)
Length of Visible Light 11h 14m
Length of Day
10h 21m
Waning Crescent, 23% of the Moon is Illuminated
Jan 26
Waning Crescent
Jan 30
New
Feb 6
First Quarter
Feb 14
Full
Feb 22
Last Quarter

Hourly Weather History & Observations

Time (CST) Temp. Windchill Dew Point Humidity Pressure Visibility Wind Dir Wind Speed Gust Speed Precip Events Conditions
12:53 AM 28.9 °F - 21.0 °F 72% 30.01 in 10.0 mi Calm Calm - N/A   Clear
1:53 AM 26.1 °F - 21.0 °F 81% 29.99 in 10.0 mi Calm Calm - N/A   Clear
2:53 AM 21.9 °F 17.2 °F 19.0 °F 89% 29.99 in 10.0 mi East 3.5 mph - N/A   Clear
3:53 AM 19.9 °F 14.9 °F 16.0 °F 85% 29.98 in 10.0 mi South 3.5 mph - N/A   Clear
4:53 AM 21.9 °F - 18.0 °F 85% 29.98 in 10.0 mi Calm Calm - N/A   Clear
5:53 AM 21.9 °F 17.2 °F 19.9 °F 92% 29.97 in 10.0 mi ESE 3.5 mph - N/A   Clear
6:53 AM 24.1 °F 19.7 °F 21.0 °F 88% 29.97 in 10.0 mi ESE 3.5 mph - N/A   Clear
7:53 AM 28.0 °F - 25.0 °F 88% 29.98 in 10.0 mi Calm Calm - N/A   Clear
8:53 AM 37.9 °F 30.9 °F 27.0 °F 65% 29.97 in 10.0 mi South 10.4 mph - N/A   Clear
9:53 AM 48.0 °F - 27.0 °F 44% 29.96 in 10.0 mi SW 13.8 mph - N/A   Clear
10:53 AM 53.1 °F - 27.0 °F 37% 29.95 in 10.0 mi SSW 9.2 mph 20.7 mph N/A   Clear
11:53 AM 55.0 °F - 27.0 °F 34% 29.92 in 10.0 mi SSW 15.0 mph - N/A   Clear
12:53 PM 57.0 °F - 28.0 °F 33% 29.89 in 10.0 mi SW 11.5 mph - N/A   Clear
1:53 PM 57.0 °F - 28.0 °F 33% 29.86 in 10.0 mi SSW 16.1 mph - N/A   Clear
2:53 PM 55.9 °F - 28.0 °F 34% 29.85 in 10.0 mi South 13.8 mph 20.7 mph N/A   Clear
3:53 PM 54.0 °F - 28.9 °F 38% 29.85 in 10.0 mi SSW 9.2 mph - N/A   Clear
4:53 PM 52.0 °F - 28.9 °F 41% 29.85 in 10.0 mi South 8.1 mph - N/A   Clear
5:53 PM 50.0 °F - 28.9 °F 44% 29.86 in 10.0 mi SSW 6.9 mph - N/A   Clear
6:53 PM 46.9 °F - 30.0 °F 52% 29.87 in 10.0 mi South 9.2 mph - N/A   Overcast
7:53 PM 48.0 °F - 30.0 °F 50% 29.87 in 10.0 mi South 6.9 mph - N/A   Scattered Clouds
8:53 PM 48.0 °F - 30.0 °F 50% 29.86 in 10.0 mi SSE 5.8 mph - N/A   Mostly Cloudy
9:53 PM 50.0 °F - 30.0 °F 46% 29.84 in 10.0 mi South 9.2 mph - N/A   Clear
10:53 PM 50.0 °F - 30.0 °F 46% 29.83 in 10.0 mi SSE 8.1 mph - N/A   Overcast
11:53 PM 51.1 °F - 30.0 °F 44% 29.84 in 10.0 mi SSW 10.4 mph - N/A   Scattered Clouds